TimePST,TemperatureF,Dew PointF,Humidity,Sea Level PressureIn,VisibilityMPH,Wind Direction,Wind SpeedMPH,Gust SpeedMPH,PrecipitationIn,Events,Conditions,WindDirDegrees,DateUTC
12:53 AM,33.1,30.9,92,30.24,10.0,SSE,3.5,-,N/A,,Clear,160,2012-12-10 08:53:00
1:53 AM,30.9,28.9,92,30.26,10.0,ESE,4.6,-,N/A,,Clear,120,2012-12-10 09:53:00
2:53 AM,32.0,30.0,92,30.26,10.0,ESE,3.5,-,N/A,,Clear,120,2012-12-10 10:53:00
3:53 AM,33.1,32.0,96,30.27,10.0,SSE,3.5,-,N/A,,Clear,160,2012-12-10 11:53:00
4:53 AM,28.9,28.0,96,30.29,8.0,Calm,Calm,-,N/A,,Clear,0,2012-12-10 12:53:00
5:36 AM,28.4,28.4,100,30.29,2.0,East,5.8,-,N/A,,Clear,80,2012-12-10 13:36:00
5:45 AM,30.2,30.2,100,30.29,10.0,East,5.8,-,N/A,,Partly Cloudy,100,2012-12-10 13:45:00
5:53 AM,33.1,30.9,92,30.30,10.0,ESE,5.8,-,N/A,,Clear,110,2012-12-10 13:53:00
6:51 AM,32.0,30.2,93,30.30,7.0,Calm,Calm,-,N/A,,Partly Cloudy,0,2012-12-10 14:51:00
6:53 AM,32.0,30.0,92,30.31,7.0,Calm,Calm,-,N/A,,Partly Cloudy,0,2012-12-10 14:53:00
7:53 AM,32.0,30.0,92,30.32,5.0,Calm,Calm,-,N/A,,Clear,0,2012-12-10 15:53:00
8:23 AM,33.8,33.8,100,30.30,5.0,Calm,Calm,-,N/A,,Partly Cloudy,0,2012-12-10 16:23:00
8:53 AM,34.0,33.1,96,30.32,4.0,Calm,Calm,-,N/A,,Partly Cloudy,0,2012-12-10 16:53:00
9:04 AM,33.8,33.8,100,30.31,1.2,WNW,3.5,-,N/A,,Scattered Clouds,300,2012-12-10 17:04:00
9:11 AM,33.8,33.8,100,30.31,0.2,Calm,Calm,-,N/A,Fog,Fog,0,2012-12-10 17:11:00
9:41 AM,37.4,35.6,93,30.30,2.5,SSE,3.5,-,N/A,,Mostly Cloudy,150,2012-12-10 17:41:00
9:45 AM,37.4,37.4,100,30.30,8.0,Calm,Calm,-,N/A,,Scattered Clouds,0,2012-12-10 17:45:00
9:53 AM,39.9,39.0,97,30.32,10.0,Calm,Calm,-,N/A,,Partly Cloudy,0,2012-12-10 17:53:00
10:53 AM,46.0,39.9,79,30.30,10.0,Calm,Calm,-,N/A,,Clear,0,2012-12-10 18:53:00
11:53 AM,45.0,39.0,80,30.28,10.0,Calm,Calm,-,N/A,,Clear,0,2012-12-10 19:53:00
12:53 PM,45.0,39.9,82,30.25,10.0,NW,3.5,-,N/A,,Clear,320,2012-12-10 20:53:00
1:53 PM,52.0,41.0,66,30.22,10.0,SW,5.8,-,N/A,,Clear,230,2012-12-10 21:53:00
2:53 PM,50.0,39.0,66,30.21,10.0,WSW,8.1,-,N/A,,Clear,240,2012-12-10 22:53:00
3:53 PM,45.0,37.9,76,30.21,10.0,WSW,3.5,-,N/A,,Clear,240,2012-12-10 23:53:00
4:53 PM,42.1,36.0,79,30.20,10.0,West,5.8,-,N/A,,Clear,260,2012-12-11 00:53:00
5:53 PM,42.1,36.0,79,30.19,10.0,SW,5.8,-,N/A,,Clear,220,2012-12-11 01:53:00
6:53 PM,42.1,36.0,79,30.18,10.0,SSW,6.9,-,N/A,,Clear,210,2012-12-11 02:53:00
7:53 PM,43.0,36.0,76,30.17,10.0,SSW,8.1,-,N/A,,Clear,210,2012-12-11 03:53:00
8:53 PM,43.0,36.0,76,30.16,10.0,SSW,6.9,-,N/A,,Clear,200,2012-12-11 04:53:00
9:53 PM,44.1,35.1,71,30.13,10.0,SSW,9.2,-,N/A,,Clear,210,2012-12-11 05:53:00
10:53 PM,44.1,35.1,71,30.10,10.0,SSW,10.4,-,N/A,,Clear,210,2012-12-11 06:53:00
11:53 PM,43.0,34.0,71,30.08,10.0,SSW,8.1,-,N/A,,Clear,210,2012-12-11 07:53:00